EB2EMZ-14 Weather Reports


Display with metric or nautical units.
time (UTC)temp
F
wind
direction
speed
MPH
gust
MPH
rain 1hr
in
rain 24hr
in
rain mn
in
humidity
%
barometer
mb
20260506145010 60 23 1.0 5.0 0.00 0.08 0.00 64 1012.4
20260506144510 60 279 0.0 3.0 0.00 0.08 0.00 65 1012.5
20260506144010 59 6 1.0 6.0 0.00 0.08 0.00 65 1012.6
20260506143510 59 341 1.0 3.0 0.00 0.08 0.00 66 1012.6
20260506143010 58 19 1.0 2.0 0.00 0.08 0.00 66 1012.8
20260506142511 58 45 0.0 2.0 0.00 0.08 0.00 64 1012.8
20260506142010 59 28 0.0 0.0 0.00 0.08 0.00 63 1012.7
20260506141510 60 338 0.0 2.0 0.00 0.08 0.00 62 1012.7
20260506141010 61 26 0.0 2.0 0.00 0.08 0.00 61 1012.7
20260506140511 62 1 0.0 1.0 0.00 0.08 0.00 61 1012.7
20260506140010 63 183 1.0 3.0 0.00 0.08 0.00 62 1012.7
20260506135510 62 175 1.0 5.0 0.00 0.08 0.00 61 1012.8
20260506135011 62 325 0.0 1.0 0.00 0.08 0.00 61 1012.8
20260506134510 62 52 0.0 1.0 0.00 0.08 0.00 62 1012.8
20260506134010 62 45 0.0 0.0 0.00 0.08 0.00 61 1012.8
20260506133510 62 22 0.0 3.0 0.00 0.08 0.00 61 1012.8
20260506133011 62 16 0.0 3.0 0.00 0.08 0.00 60 1012.9
20260506132513 62 291 0.0 2.0 0.00 0.08 0.00 60 1012.8
20260506132010 62 327 0.0 0.0 0.00 0.08 0.00 59 1012.9
20260506131511 63 348 0.0 7.0 0.00 0.08 0.00 59 1012.7
20260506131011 63 43 1.0 7.0 0.00 0.08 0.00 60 1012.8
20260506130510 63 36 0.0 6.0 0.00 0.08 0.00 60 1012.7
20260506130010 62 354 0.0 2.0 0.00 0.08 0.00 60 1012.8
20260506125510 62 350 0.0 1.0 0.00 0.08 0.00 61 1012.8
20260506125010 62 17 0.0 2.0 0.00 0.08 0.00 62 1012.7
20260506124511 61 68 0.0 1.0 0.00 0.08 0.00 61 1012.8
20260506124011 61 129 0.0 0.0 0.00 0.08 0.00 61 1012.7
20260506123510 61 120 0.0 3.0 0.00 0.08 0.00 61 1012.8
20260506123011 61 22 1.0 3.0 0.00 0.10 0.00 61 1012.7
20260506122512 60 30 0.0 3.0 0.00 0.12 0.00 63 1012.8
20260506122010 59 282 0.0 0.0 0.00 0.12 0.00 64 1012.6
20260506121510 59 0 0.0 0.0 0.00 0.12 0.00 64 1012.7
20260506121010 58 16 0.0 0.0 0.00 0.14 0.00 64 1012.8
20260506120511 59 307 0.0 0.0 0.00 0.14 0.00 63 1012.8
20260506120010 59 0 0.0 0.0 0.00 0.14 0.00 61 1012.7
20260506115510 59 22 0.0 3.0 0.00 0.14 0.00 60 1012.7
20260506115011 60 301 0.0 2.0 0.00 0.14 0.00 59 1012.7
20260506114510 62 22 0.0 0.0 0.00 0.14 0.00 57 1012.8
20260506114010 64 45 0.0 3.0 0.00 0.14 0.00 56 1012.7
20260506113509 66 18 0.0 2.0 0.00 0.16 0.00 55 1012.8
20260506113010 67 344 1.0 6.0 0.00 0.16 0.00 54 1012.6
20260506112510 67 31 0.0 6.0 0.00 0.16 0.00 54 1012.5
20260506112010 67 1 0.0 2.0 0.00 0.16 0.00 56 1012.7
20260506111510 66 132 0.0 1.0 0.00 0.16 0.00 59 1012.6
20260506111010 64 237 0.0 5.0 0.00 0.16 0.00 58 1012.7
20260506110510 64 6 0.0 7.0 0.00 0.16 0.00 57 1012.8
20260506110009 65 27 1.0 5.0 0.00 0.16 0.00 58 1012.9
20260506105510 65 331 1.0 5.0 0.00 0.16 0.00 59 1012.5
20260506105010 64 22 1.0 5.0 0.00 0.16 0.00 59 1012.6
20260506104511 63 19 0.0 2.0 0.00 0.16 0.00 59 1012.6
20260506104009 63 0 0.0 0.0 0.00 0.16 0.00 58 1012.6
20260506103510 64 336 0.0 3.0 0.00 0.16 0.00 58 1012.6
20260506103009 63 247 0.0 3.0 0.00 0.16 0.00 59 1012.6
20260506102510 63 2 1.0 6.0 0.00 0.16 0.00 60 1012.7
20260506102010 62 0 0.0 0.0 0.00 0.16 0.00 58 1012.6
20260506101510 63 358 1.0 3.0 0.00 0.16 0.00 57 1012.8
20260506101013 64 45 0.0 0.0 0.00 0.16 0.00 59 1012.6
20260506100510 64 315 0.0 2.0 0.00 0.16 0.00 59 1012.5
20260506100010 63 291 0.0 0.0 0.00 0.16 0.00 61 1012.5
20260506095510 62 0 0.0 1.0 0.00 0.16 0.00 61 1012.5
20260506095011 62 353 0.0 0.0 0.00 0.16 0.00 61 1012.5
20260506094509 62 22 0.0 0.0 0.00 0.16 0.00 61 1012.6
20260506094010 62 0 0.0 0.0 0.00 0.16 0.00 61 1012.5
20260506093510 62 338 0.0 0.0 0.00 0.16 0.00 61 1012.6
20260506093010 62 22 0.0 0.0 0.00 0.16 0.00 61 1012.7
20260506092509 62 0 0.0 1.0 0.00 0.16 0.00 62 1012.5
20260506092009 61 338 1.0 3.0 0.00 0.16 0.00 61 1012.5
20260506091509 61 338 0.0 2.0 0.00 0.16 0.00 61 1012.5
20260506091011 62 90 0.0 0.0 0.00 0.16 0.00 60 1012.5
20260506090513 62 141 0.0 0.0 0.00 0.16 0.00 60 1012.4
20260506090009 63 45 0.0 0.0 0.00 0.16 0.00 60 1012.4
20260506085510 63 0 0.0 0.0 0.00 0.16 0.00 58 1012.4
20260506085010 64 51 0.0 3.0 0.00 0.16 0.00 57 1012.5
20260506084509 65 3 0.0 3.0 0.00 0.16 0.00 56 1012.4
20260506084010 66 22 0.0 1.0 0.00 0.16 0.00 57 1012.4
20260506083510 66 315 0.0 0.0 0.00 0.16 0.00 57 1012.5
20260506083009 66 292 0.0 5.0 0.00 0.16 0.00 58 1012.4
20260506082510 65 182 1.0 6.0 0.00 0.16 0.00 58 1012.5
20260506082011 66 160 0.0 2.0 0.00 0.16 0.00 57 1012.4
20260506081510 67 292 0.0 1.0 0.00 0.16 0.00 56 1012.4
20260506081009 68 22 0.0 1.0 0.00 0.16 0.00 55 1012.4
20260506080511 68 90 0.0 0.0 0.00 0.16 0.00 56 1012.4
20260506073510 70 248 0.0 0.0 0.00 0.16 0.00 59 1012.2
20260506073009 69 338 0.0 0.0 0.00 0.16 0.00 60 1012.2
20260506072509 69 265 0.0 0.0 0.00 0.16 0.00 63 1012.3
20260506072010 67 22 0.0 0.0 0.00 0.16 0.00 67 1012.2
20260506071509 65 135 0.0 0.0 0.00 0.16 0.00 72 1012.2
20260506071009 61 158 0.0 0.0 0.00 0.16 0.00 83 1012.2
20260506070509 57 158 0.0 0.0 0.00 0.16 0.00 92 1012.2
20260506062510 47 158 0.0 0.0 0.00 0.16 0.00 94 1012.1
20260506062010 44 158 0.0 0.0 0.00 0.16 0.00 93 1012.1
20260506061509 43 158 0.0 0.0 0.00 0.16 0.00 93 1011.9
20260506061011 42 158 0.0 0.0 0.00 0.16 0.00 93 1011.9
20260506060510 42 158 0.0 0.0 0.00 0.16 0.00 92 1012.0
20260506051010 40 68 0.0 0.0 0.00 0.16 0.00 92 1011.8
20260506050513 40 68 0.0 0.0 0.00 0.16 0.00 92 1011.8
20260506045011 41 68 0.0 0.0 0.00 0.18 0.00 92 1011.9
20260506044509 41 68 0.0 0.0 0.00 0.18 0.00 92 1011.8
20260506044010 41 68 0.0 0.0 0.00 0.18 0.00 92 1011.7
20260506043509 41 68 0.0 0.0 0.00 0.18 0.00 92 1011.8
20260506043009 41 68 0.0 0.0 0.00 0.18 0.00 92 1011.8
20260506042510 41 68 0.0 0.0 0.00 0.18 0.00 92 1011.8
20260506042009 41 68 0.0 0.0 0.00 0.18 0.00 92 1011.8
20260506041511 41 68 0.0 0.0 0.00 0.18 0.00 92 1011.7
20260506041011 41 68 0.0 0.0 0.00 0.18 0.00 92 1011.8
20260506040509 41 68 0.0 0.0 0.00 0.18 0.00 92 1011.8
20260506040009 41 68 0.0 0.0 0.00 0.18 0.00 92 1011.9
20260506035509 41 68 0.0 0.0 0.00 0.18 0.00 92 1011.8
20260506035009 41 68 0.0 0.0 0.00 0.18 0.00 92 1011.9
20260506034509 41 68 0.0 0.0 0.00 0.18 0.00 92 1012.0
20260506034010 41 68 0.0 0.0 0.00 0.18 0.00 92 1011.9
20260506033509 41 71 0.0 0.0 0.00 0.18 0.00 91 1011.9
20260506033009 41 68 0.0 0.0 0.00 0.18 0.00 91 1011.8
20260506032510 41 68 0.0 0.0 0.00 0.18 0.00 91 1011.8
20260506032009 41 68 0.0 0.0 0.00 0.18 0.00 91 1011.8
20260506031509 41 68 0.0 0.0 0.00 0.18 0.00 91 1011.7
20260506031010 41 68 0.0 0.0 0.00 0.18 0.00 91 1011.8
20260506030509 41 68 0.0 0.0 0.00 0.18 0.00 92 1011.8
20260506030009 42 68 0.0 0.0 0.00 0.18 0.00 92 1011.9
20260506025509 42 68 0.0 0.0 0.00 0.18 0.00 92 1011.9
20260506025009 42 68 0.0 0.0 0.00 0.18 0.00 92 1012.0
20260506024509 42 68 0.0 0.0 0.00 0.18 0.00 92 1012.0
20260506024010 42 68 0.0 0.0 0.00 0.18 0.00 92 1012.1
20260506023509 42 68 0.0 0.0 0.00 0.18 0.00 92 1011.9
20260506023009 42 68 0.0 0.0 0.00 0.18 0.00 92 1012.1
20260506022509 42 68 0.0 0.0 0.00 0.20 0.00 92 1012.1
20260506022010 41 68 0.0 0.0 0.00 0.20 0.00 92 1011.8
20260506021509 41 68 0.0 0.0 0.00 0.22 0.00 92 1011.9
20260506021010 41 68 0.0 0.0 0.00 0.22 0.00 92 1012.2
20260506020510 41 68 0.0 0.0 0.00 0.22 0.00 91 1012.1
20260506020009 41 68 0.0 0.0 0.00 0.22 0.00 91 1012.0
20260506015509 41 68 0.0 0.0 0.00 0.22 0.00 91 1012.0
20260506015009 41 68 0.0 0.0 0.00 0.22 0.00 91 1012.1
20260506014509 41 68 0.0 0.0 0.00 0.22 0.00 91 1012.1
20260506014010 41 68 0.0 0.0 0.00 0.22 0.00 91 1012.2
20260506013510 41 90 0.0 0.0 0.00 0.22 0.00 91 1012.0
20260506013008 41 90 0.0 0.0 0.00 0.22 0.00 91 1012.2
20260506012510 41 90 0.0 0.0 0.00 0.22 0.00 91 1012.2
20260506012010 41 90 0.0 0.0 0.00 0.22 0.00 91 1012.3
20260506011510 41 90 0.0 0.0 0.00 0.22 0.00 91 1012.1
20260506011009 41 90 0.0 0.0 0.00 0.22 0.00 91 1012.2
20260506010509 41 90 0.0 0.0 0.00 0.22 0.00 91 1012.2
20260506010009 41 90 0.0 0.0 0.00 0.22 0.00 91 1012.3
20260506005510 41 90 0.0 0.0 0.00 0.22 0.00 91 1012.3
20260506005010 41 90 0.0 0.0 0.00 0.22 0.00 91 1012.5
20260506004511 42 90 0.0 0.0 0.00 0.22 0.00 91 1012.5
20260506004010 42 90 0.0 0.0 0.00 0.22 0.00 91 1012.4
20260506003509 42 90 0.0 0.0 0.00 0.22 0.00 91 1012.5
20260506003009 42 90 0.0 0.0 0.00 0.22 0.00 91 1012.5
20260506002509 42 90 0.0 0.0 0.00 0.22 0.00 91 1012.7
20260506002009 42 90 0.0 0.0 0.00 0.22 0.00 91 1012.8
20260506001508 41 90 0.0 0.0 0.00 0.22 0.00 91 1012.8
20260506001010 41 90 0.0 0.0 0.00 0.22 0.00 91 1012.7
20260506000510 41 90 0.0 0.0 0.00 0.22 0.00 91 1012.8
20260506000009 41 90 0.0 0.0 0.00 0.22 0.00 91 1012.9
20260505235510 41 90 0.0 0.0 0.00 0.22 0.00 91 1012.7
20260505235009 41 90 0.0 0.0 0.00 0.22 0.00 91 1012.7
20260505234510 41 90 0.0 0.0 0.00 0.22 0.00 91 1012.7
20260505234009 41 90 0.0 0.0 0.00 0.22 0.00 91 1012.7
20260505233511 42 90 0.0 0.0 0.00 0.22 0.00 91 1012.8
20260505233011 42 90 0.0 0.0 0.00 0.22 0.00 91 1012.8
20260505232510 42 90 0.0 0.0 0.00 0.24 0.00 91 1012.7
20260505232009 42 90 0.0 0.0 0.00 0.24 0.00 91 1012.7
20260505231510 42 90 0.0 0.0 0.00 0.24 0.00 91 1012.8
20260505231012 42 90 0.0 0.0 0.00 0.24 0.00 91 1012.9
20260505230511 42 90 0.0 0.0 0.00 0.24 0.00 91 1012.8
20260505230009 42 90 0.0 0.0 0.00 0.24 0.00 91 1012.7
20260505225511 42 85 0.0 0.0 0.00 0.24 0.00 91 1012.8
20260505225011 41 248 0.0 0.0 0.00 0.26 0.00 90 1012.8
20260505224509 41 248 0.0 0.0 0.00 0.26 0.00 90 1012.7
20260505224010 41 248 0.0 0.0 0.00 0.28 0.00 90 1012.9
20260505223508 41 248 0.0 0.0 0.00 0.28 0.00 90 1012.9
20260505223008 41 248 0.0 0.0 0.00 0.28 0.00 89 1012.9
20260505222510 41 248 0.0 0.0 0.00 0.28 0.00 89 1012.9
20260505222010 41 248 0.0 0.0 0.00 0.28 0.00 89 1012.9
20260505221509 41 248 0.0 0.0 0.00 0.28 0.00 89 1012.8
20260505221011 41 248 0.0 0.0 0.00 0.28 0.00 89 1012.9
20260505220509 41 248 0.0 0.0 0.00 0.28 0.00 89 1012.9
20260505220011 42 248 0.0 0.0 0.00 0.28 0.00 89 1012.9
20260505215509 42 253 0.0 0.0 0.00 0.28 0.28 89 1012.9
20260505215009 42 248 0.0 0.0 0.00 0.28 0.28 89 1012.8
20260505214510 42 248 0.0 0.0 0.00 0.28 0.28 89 1012.8
20260505214008 42 248 0.0 0.0 0.00 0.28 0.28 89 1012.8
20260505213509 43 248 0.0 0.0 0.00 0.28 0.28 89 1012.9
20260505213009 43 254 0.0 0.0 0.00 0.28 0.28 89 1012.8
20260505212509 43 248 0.0 0.0 0.00 0.28 0.28 89 1013.0
20260505212009 43 248 0.0 0.0 0.00 0.28 0.28 89 1013.0
20260505211508 43 248 0.0 0.0 0.00 0.28 0.28 89 1012.9
20260505211008 43 248 0.0 0.0 0.00 0.28 0.28 89 1013.0
20260505210509 42 248 0.0 0.0 0.00 0.28 0.28 88 1013.2
20260505210008 42 248 0.0 0.0 0.00 0.28 0.28 88 1013.2
20260505205509 43 248 0.0 0.0 0.00 0.28 0.28 88 1012.9
20260505205009 43 248 0.0 0.0 0.00 0.28 0.28 88 1012.9
20260505204509 43 248 0.0 0.0 0.00 0.28 0.28 87 1012.9
20260505204008 43 248 0.0 0.0 0.00 0.28 0.28 87 1012.9
20260505203509 43 248 0.0 0.0 0.00 0.28 0.28 87 1012.9
20260505203009 44 248 0.0 0.0 0.00 0.28 0.28 87 1012.9
20260505202509 44 248 0.0 0.0 0.00 0.28 0.28 87 1012.8
20260505202010 44 248 0.0 0.0 0.00 0.28 0.28 87 1012.8
20260505201510 44 248 0.0 0.0 0.00 0.28 0.28 87 1012.7
20260505201009 44 338 0.0 0.0 0.00 0.28 0.28 87 1012.8
20260505200509 45 338 0.0 0.0 0.00 0.28 0.28 87 1012.7
20260505200009 45 338 0.0 0.0 0.00 0.28 0.28 87 1012.6
20260505195509 45 338 0.0 0.0 0.00 0.28 0.28 86 1012.7
20260505195010 45 338 0.0 0.0 0.00 0.28 0.28 86 1012.7
20260505194509 45 338 0.0 0.0 0.00 0.28 0.28 86 1012.6
20260505194010 46 0 0.0 0.0 0.00 0.28 0.28 85 1012.5
20260505193510 46 0 0.0 0.0 0.00 0.28 0.28 86 1012.5
20260505193013 46 0 0.0 0.0 0.00 0.28 0.28 86 1012.7
20260505192509 47 0 0.0 0.0 0.00 0.28 0.28 86 1012.5
20260505192009 47 22 0.0 0.0 0.00 0.28 0.28 86 1012.5
20260505191508 47 22 0.0 0.0 0.00 0.28 0.28 85 1012.4
20260505191009 47 302 0.0 0.0 0.00 0.28 0.28 85 1012.5
20260505190509 47 292 0.0 0.0 0.00 0.28 0.28 85 1012.3
20260505190010 47 292 0.0 0.0 0.00 0.28 0.28 84 1012.3
20260505185510 48 292 0.0 0.0 0.00 0.28 0.28 84 1012.3
20260505185010 48 292 0.0 0.0 0.00 0.28 0.28 84 1012.3
20260505184509 49 292 0.0 0.0 0.00 0.28 0.28 84 1012.3
20260505184009 49 311 0.0 0.0 0.00 0.28 0.28 84 1012.3
20260505183509 49 315 0.0 0.0 0.00 0.28 0.28 84 1012.4
20260505183008 49 315 0.0 0.0 0.00 0.28 0.28 84 1012.3
20260505182509 49 315 0.0 0.0 0.00 0.28 0.28 83 1012.3
20260505182008 49 315 0.0 0.0 0.00 0.28 0.28 83 1012.3
20260505181508 49 292 0.0 0.0 0.00 0.28 0.28 83 1012.2
20260505181008 49 292 0.0 0.0 0.00 0.28 0.28 83 1012.3
20260505180509 49 292 0.0 0.0 0.00 0.28 0.28 83 1012.2
20260505180009 49 292 0.0 0.0 0.00 0.28 0.28 83 1012.2
20260505175509 49 292 0.0 0.0 0.02 0.28 0.28 83 1012.3
20260505175010 49 292 0.0 0.0 0.04 0.28 0.28 83 1012.2
20260505174508 49 292 0.0 0.0 0.06 0.28 0.28 83 1012.2
20260505174008 49 292 0.0 0.0 0.08 0.28 0.28 82 1012.1
20260505173509 50 292 0.0 0.0 0.08 0.28 0.28 82 1012.2
20260505173008 50 292 0.0 0.0 0.08 0.28 0.28 82 1012.1
20260505172509 49 292 0.0 0.0 0.08 0.28 0.28 82 1012.1
20260505172009 49 304 0.0 0.0 0.08 0.28 0.28 82 1012.2
20260505171509 49 45 0.0 0.0 0.08 0.28 0.28 81 1012.3
20260505171009 49 22 0.0 0.0 0.08 0.28 0.28 81 1012.3
20260505170509 49 22 0.0 0.0 0.08 0.28 0.28 80 1012.3
20260505170009 49 27 0.0 0.0 0.08 0.28 0.28 79 1012.4
20260505165508 50 34 0.0 0.0 0.06 0.26 0.26 78 1012.4
20260505165009 51 27 0.0 0.0 0.04 0.24 0.24 77 1012.4
20260505164508 52 2 0.0 3.0 0.02 0.22 0.22 76 1012.5
20260505164009 53 26 0.0 2.0 0.00 0.20 0.20 75 1012.5
20260505163509 54 22 0.0 0.0 0.00 0.20 0.20 74 1012.4
20260505163009 55 22 0.0 0.0 0.00 0.20 0.20 74 1012.2
20260505162508 55 225 0.0 0.0 0.00 0.20 0.20 74 1012.2
20260505162008 55 225 0.0 0.0 0.00 0.20 0.20 74 1012.1
20260505161508 55 0 0.0 0.0 0.00 0.20 0.20 74 1012.1
20260505161008 55 0 0.0 0.0 0.00 0.20 0.20 74 1012.0
20260505160508 56 0 0.0 0.0 0.00 0.20 0.20 74 1012.1
20260505153008 58 22 0.0 2.0 0.00 0.20 0.20 73 1011.9
20260505152509 57 292 0.0 0.0 0.00 0.20 0.20 73 1011.9
20260505152008 57 22 0.0 0.0 0.00 0.20 0.20 73 1011.8
20260505151508 57 0 0.0 0.0 0.00 0.20 0.20 73 1012.0
20260505151009 57 22 0.0 1.0 0.00 0.20 0.20 74 1012.0
20260505150510 56 25 0.0 0.0 0.00 0.20 0.20 77 1012.1